Volver al catálogo

STARLINK-35243

ActivoComunicacionesVLEO
NORAD 66016·PAYLOAD·🇺🇸 United States

Lanzado Oct 16, 2025 desde Cape Canaveral Space Force Station

Loading…

Próximos Pases (próximas 24 horas)

TLE

ActualizadoSource: CelesTrak SupGP

Época: Sep 15, 2026, 04:14 UTC

1 66016C 25232M   26258.17687500  .00004505  00000+0  13308-3 0  2589
2 66016  53.1578 300.8585 0001203  93.9829  56.2597 15.34392093    19

Sigue STARLINK-35243 en tiempo real con AllMySat

Download on the App Store